QPF
0.00 0.00 0.00 0.00 0.00 0.00 0.00 0.00 0.00 0.00 0.00 0.00 0.00 0.00 0.00 0.00 0.00 0.00 0.00 0.00 0.00 0.00 0.00 0.00 0.00 0.00 0.00 0.00 0.00 0.00 0.00 0.00 0.00 0.00 0.00 0.00 0.00 0.00 0.00 0.00 0.00 0.00 0.00 0.00
0.00 0.00 0.00 0.00 0.00 0.00 0.00 0.00 0.00 0.00 0.00 0.00 0.00 0.00 0.00 0.00 0.00 0.00 0.00 0.00 0.00 0.00 0.00 0.00 0.00 0.00 0.00 0.00 0.00 0.00 0.00 0.00 0.00 0.00 0.00 0.00 0.00 0.00 0.00 0.00 0.00 0.00 0.00 0.00
0.00 0.00 0.00 0.00 0.00 0.00 0.00 0.00 0.00 0.00 0.00 0.00 0.00 0.00 0.00 0.00 0.00 0.00 0.00 0.00 0.00 0.00 0.00 0.00 0.00 0.00 0.00 0.00 0.00 0.00 0.00 0.00 0.00 0.00 0.00 0.00 0.00 0.00 0.00 0.00 0.00 0.00 0.00 0.00
0.00 0.00 0.00 0.00 0.00 0.00 0.00 0.00 0.00 0.00 0.00 0.00 0.00 0.00 0.00 0.00 0.00 0.00 0.00 0.00 0.00 0.00 0.00 0.00 0.00 0.00 0.00 0.00 0.00 0.00 0.00 0.00 0.00 0.00 0.00 0.00 0.00 0.00 0.00 0.00 0.00 0.00 0.00 0.00
0.00 0.00 0.00 0.00 0.00 0.00 0.00 0.00 0.00 0.00 0.00 0.00 0.00 0.00 0.00 0.00 0.00 0.00 0.00 0.00 0.00 0.00 0.00 0.00 0.00 0.00 0.00 0.00 0.00 0.00 0.00 0.00 0.00 0.00 0.00 0.00 0.00 0.00 0.00 0.00 0.00 0.00 0.00 0.00
0.00 0.00 0.00 0.00 0.00 0.00 0.00 0.00 0.00 0.00 0.00 0.00 0.00 0.00 0.00 0.00 0.00 0.00 0.00 0.00 0.00 0.00 0.00 0.00 0.00 0.00 0.00 0.00 0.00 0.00 0.00 0.00 0.00 0.00 0.00 0.00 0.00 0.00 0.00 0.00 0.00 0.00 0.00 0.00
0.00 0.00 0.00 0.00 0.00 0.00 0.00 0.00 0.00 0.00 0.00 0.00 0.00 0.00 0.00 0.00 0.00 0.00 0.00 0.00 0.00 0.00 0.00 0.00 0.00 0.00 0.00 0.00 0.00 0.00 0.00 0.00 0.00 0.00 0.00 0.00 0.00 0.00 0.00 0.00 0.00 0.00 0.00 0.00
0.00 0.00 0.00 0.00 0.00 0.00 0.00 0.00 0.00 0.00 0.00 0.00 0.00 0.00 0.00 0.00 0.00 0.00 0.00 0.00 0.00 0.00 0.00 0.00 0.00 0.00 0.00 0.00 0.00 0.00 0.00 0.00 0.00 0.00 0.01 0.01 0.01 0.00 0.00 0.00 0.00 0.00 0.00 0.00
0.00 0.00 0.00 0.00 0.00 0.00 0.00 0.00 0.00 0.00 0.00 0.00 0.00 0.00 0.00 0.00 0.00 0.00 0.00 0.00 0.00 0.00 0.00 0.00 0.00 0.00 0.00 0.00 0.00 0.00 0.00 0.00 0.00 0.00 0.02 0.03 0.01 0.00 0.00 0.00 0.00 0.00 0.00 0.00
0.00 0.00 0.00 0.00 0.00 0.00 0.00 0.00 0.00 0.00 0.00 0.00 0.00 0.00 0.00 0.00 0.00 0.00 0.00 0.00 0.00 0.00 0.00 0.00 0.00 0.00 0.00 0.00 0.00 0.00 0.00 0.00 0.00 0.00 0.00 0.00 0.00 0.00 0.00 0.00 0.00 0.00 0.00 0.00
0.00 0.00 0.00 0.00 0.00 0.00 0.00 0.00 0.00 0.00 0.00 0.00 0.00 0.00 0.00 0.00 0.00 0.00 0.00 0.00 0.00 0.00 0.00 0.00 0.00 0.00 0.00 0.00 0.00 0.00 0.00 0.00 0.00 0.00 0.00 0.00 0.00 0.00 0.00 0.00 0.00 0.00 0.00 0.00
0.00 0.00 0.00 0.00 0.00 0.00 0.00 0.00 0.00 0.00 0.00 0.01 0.00 0.00 0.00 0.00 0.00 0.00 0.00 0.00 0.00 0.00 0.00 0.00 0.00 0.00 0.00 0.00 0.00 0.00 0.00 0.00 0.00 0.00 0.00 0.00 0.00 0.00 0.00 0.00 0.00 0.00 0.00 0.00
0.00 0.00 0.00 0.00 0.00 0.00 0.00 0.00 0.00 0.00 0.01 0.00 0.00 0.00 0.00 0.00 0.00 0.00 0.00 0.00 0.00 0.00 0.00 0.00 0.00 0.00 0.00 0.00 0.00 0.00 0.00 0.01 0.02 0.01 0.00 0.00 0.00 0.00 0.00 0.00 0.00 0.00 0.00 0.00
0.00 0.00 0.00 0.00 0.00 0.00 0.00 0.00 0.00 0.00 0.00 0.00 0.00 0.00 0.00 0.00 0.00 0.00 0.00 0.00 0.00 0.00 0.00 0.00 0.00 0.00 0.00 0.00 0.00 0.00 0.01 0.01 0.01 0.00 0.00 0.00 0.00 0.00 0.00 0.00 0.00 0.00 0.00 0.00
0.00 0.00 0.00 0.00 0.00 0.00 0.00 0.00 0.00 0.00 0.00 0.00 0.00 0.00 0.00 0.00 0.00 0.00 0.00 0.00 0.00 0.00 0.00 0.00 0.00 0.00 0.00 0.00 0.00 0.00 0.00 0.01 0.01 0.00 0.00 0.00 0.00 0.00 0.00 0.00 0.00 0.00 0.00 0.00
0.00 0.00 0.00 0.00 0.00 0.00 0.00 0.00 0.00 0.00 0.00 0.00 0.00 0.00 0.00 0.00 0.00 0.00 0.00 0.00 0.00 0.00 0.00 0.00 0.00 0.00 0.00 0.00 0.00 0.00 0.00 0.00 0.00 0.00 0.00 0.00 0.00 0.00 0.00 0.00 0.00 0.00 0.00 0.00
0.00 0.00 0.00 0.00 0.00 0.00 0.00 0.00 0.00 0.00 0.00 0.00 0.00 0.00 0.00 0.00 0.00 0.00 0.00 0.00 0.00 0.00 0.00 0.00 0.00 0.00 0.00 0.00 0.00 0.00 0.00 0.00 0.00 0.00 0.00 0.00 0.00 0.00 0.00 0.00 0.00 0.00 0.00 0.00
0.00 0.00 0.00 0.00 0.00 0.00 0.00 0.00 0.00 0.00 0.00 0.00 0.00 0.00 0.00 0.00 0.00 0.00 0.00 0.00 0.00 0.00 0.00 0.00 0.00 0.00 0.00 0.00 0.00 0.00 0.00 0.00 0.00 0.00 0.00 0.00 0.00 0.00 0.00 0.00 0.00 0.00 0.00 0.00
0.00 0.00 0.00 0.00 0.00 0.00 0.00 0.00 0.00 0.00 0.00 0.00 0.00 0.00 0.00 0.00 0.00 0.00 0.00 0.00 0.00 0.00 0.00 0.00 0.00 0.01 0.01 0.01 0.00 0.00 0.00 0.00 0.00 0.00 0.00 0.00 0.00 0.00 0.00 0.00 0.00 0.00 0.00 0.00
0.00 0.00 0.00 0.01 0.02 0.01 0.00 0.00 0.00 0.00 0.00 0.00 0.00 0.00 0.00 0.00 0.00 0.00 0.00 0.00 0.00 0.00 0.01 0.01 0.01 0.01 0.01 0.01 0.01 0.01 0.01 0.01 0.00 0.00 0.00 0.00 0.00 0.00 0.00 0.00 0.00 0.00 0.00 0.00
0.00 0.00 0.00 0.01 0.03 0.01 0.00 0.00 0.00 0.00 0.00 0.00 0.00 0.00 0.00 0.00 0.00 0.00 0.00 0.01 0.01 0.01 0.01 0.01 0.01 0.01 0.01 0.01 0.01 0.01 0.01 0.00 0.00 0.00 0.00 0.00 0.00 0.00 0.00 0.00 0.00 0.00 0.00 0.00
0.03 0.03 0.02 0.03 0.03 0.02 0.00 0.00 0.00 0.00 0.00 0.00 0.00 0.00 0.00 0.00 0.00 0.00 0.00 0.00 0.01 0.01 0.01 0.01 0.01 0.01 0.01 0.01 0.01 0.00 0.00 0.00 0.00 0.01 0.01 0.01 0.00 0.00 0.00 0.00 0.00 0.00 0.00 0.00
0.04 0.03 0.03 0.04 0.04 0.01 0.00 0.00 0.00 0.00 0.00 0.00 0.00 0.00 0.00 0.00 0.00 0.00 0.00 0.00 0.01 0.00 0.01 0.01 0.01 0.00 0.00 0.00 0.00 0.00 0.00 0.00 0.00 0.01 0.01 0.01 0.01 0.00 0.00 0.00 0.00 0.00 0.00 0.00
0.03 0.02 0.02 0.01 0.01 0.00 0.00 0.00 0.00 0.00 0.00 0.00 0.00 0.00 0.00 0.00 0.00 0.00 0.00 0.00 0.00 0.00 0.00 0.00 0.00 0.00 0.00 0.00 0.00 0.00 0.00 0.00 0.00 0.00 0.00 0.01 0.01 0.01 0.00 0.00 0.00 0.00 0.00 0.00
0.02 0.02 0.02 0.02 0.01 0.00 0.00 0.00 0.00 0.00 0.00 0.00 0.00 0.00 0.00 0.00 0.00 0.00 0.00 0.00 0.00 0.00 0.00 0.00 0.00 0.00 0.00 0.00 0.00 0.00 0.01 0.01 0.01 0.00 0.00 0.00 0.01 0.01 0.01 0.00 0.00 0.00 0.00 0.00
0.00 0.01 0.03 0.02 0.00 0.00 0.00 0.00 0.00 0.00 0.00 0.00 0.00 0.00 0.00 0.00 0.00 0.00 0.00 0.00 0.00 0.00 0.00 0.00 0.00 0.00 0.00 0.00 0.00 0.00 0.01 0.01 0.01 0.00 0.00 0.01 0.01 0.01 0.01 0.01 0.01 0.00 0.00 0.00
MSLP
1007.36 1006.72 1005.81 1005.40 1005.87 1005.94 1006.08 1005.81 1005.34 1005.23 1005.41 1005.25 1004.68 1004.26 1003.83 1003.69 1003.50 1003.26 1003.01 1002.77 1002.70 1002.57 1002.70 1002.98 1003.03 1003.24 1003.37 1003.17 1003.35 1003.37 1003.60 1003.91 1004.60 1005.18 1005.55 1005.52 1005.56 1005.94 1006.22 1006.49 1006.99 1007.41 1008.05 1008.76
1007.14 1005.99 1005.55 1006.10 1006.40 1006.60 1006.30 1005.76 1005.26 1005.14 1005.25 1005.31 1004.62 1003.93 1003.58 1003.30 1002.93 1003.02 1002.83 1002.47 1002.12 1001.90 1001.96 1001.98 1002.20 1002.45 1002.85 1003.09 1003.05 1002.91 1002.91 1003.25 1003.90 1004.38 1004.65 1004.78 1005.20 1005.53 1005.93 1006.07 1006.48 1006.93 1007.29 1007.83
1005.80 1005.56 1006.27 1006.36 1006.39 1006.34 1005.93 1005.59 1005.29 1005.19 1005.11 1004.96 1004.15 1003.12 1002.51 1002.00 1002.09 1002.47 1002.47 1002.40 1002.14 1001.90 1001.74 1001.74 1001.82 1002.31 1002.36 1002.49 1002.57 1002.47 1002.48 1002.63 1002.67 1002.92 1003.53 1004.25 1004.85 1005.16 1005.56 1005.51 1005.76 1006.16 1006.89 1007.34
1005.75 1005.51 1005.98 1006.06 1005.92 1005.97 1005.31 1005.21 1005.72 1005.49 1005.01 1003.76 1003.92 1002.41 1002.28 1001.99 1001.76 1001.86 1001.91 1001.80 1001.83 1001.88 1001.70 1001.56 1001.46 1001.85 1002.02 1002.03 1002.20 1002.15 1002.10 1002.02 1002.04 1002.58 1002.54 1003.07 1003.28 1003.63 1003.92 1004.63 1004.93 1005.43 1006.08 1006.62
1004.84 1005.60 1005.75 1005.57 1005.37 1005.91 1005.49 1005.93 1005.86 1005.53 1004.91 1004.29 1003.58 1002.38 1001.50 1001.68 1001.41 1001.46 1001.64 1001.86 1002.16 1001.91 1001.73 1002.04 1002.27 1002.35 1002.37 1002.29 1002.03 1001.87 1001.75 1001.54 1001.29 1001.52 1001.98 1002.32 1002.99 1002.74 1002.93 1003.51 1003.88 1004.63 1005.22 1005.97
1005.62 1005.79 1006.07 1005.57 1005.99 1006.34 1006.33 1006.27 1005.74 1005.25 1004.75 1003.71 1002.92 1002.75 1001.48 1001.67 1002.33 1002.67 1002.93 1002.70 1002.55 1002.78 1003.20 1002.88 1002.73 1002.57 1002.33 1002.14 1001.72 1001.30 1001.27 1001.18 1001.01 1001.03 1001.46 1001.69 1001.72 1001.98 1001.93 1002.74 1002.88 1003.44 1004.04 1005.15
1004.91 1004.97 1005.35 1006.39 1006.10 1006.28 1006.62 1006.29 1005.11 1004.14 1003.21 1002.37 1002.76 1003.10 1002.40 1002.90 1003.80 1004.18 1003.85 1003.95 1003.90 1003.83 1003.44 1003.04 1002.75 1002.76 1002.36 1002.01 1001.77 1001.36 1000.76 1000.52 1000.55 1000.51 1000.77 1001.12 1001.35 1001.55 1001.63 1002.01 1002.37 1002.46 1002.98 1003.63
1005.65 1005.25 1006.01 1006.71 1006.51 1006.14 1006.08 1006.71 1006.22 1005.36 1004.50 1003.83 1004.38 1002.95 1002.34 1003.37 1004.27 1004.66 1004.65 1004.59 1004.32 1004.16 1003.81 1003.53 1003.28 1003.07 1002.60 1002.11 1001.61 1001.08 1000.71 1000.19 1000.08 1000.05 1000.15 1000.38 1000.71 1000.94 1001.35 1001.58 1001.59 1001.89 1001.97 1002.69
1006.25 1006.30 1007.21 1007.34 1007.32 1007.41 1006.67 1007.40 1007.62 1007.54 1007.22 1005.80 1003.92 1002.96 1002.74 1003.75 1003.91 1004.20 1004.51 1004.46 1004.47 1004.42 1004.16 1003.77 1003.49 1003.13 1002.68 1002.14 1001.55 1001.12 1000.84 1000.35 1000.02 999.78 999.83 1000.02 1000.02 1000.47 1000.47 1000.82 1001.58 1001.53 1001.90 1002.19
1007.26 1006.98 1007.05 1007.44 1008.03 1008.20 1007.98 1008.07 1008.39 1008.18 1007.96 1006.05 1004.02 1003.43 1002.24 1002.62 1003.69 1004.38 1004.60 1004.49 1004.57 1004.49 1004.13 1003.86 1003.52 1003.23 1002.85 1002.22 1001.44 1001.07 1000.91 1000.63 1000.09 1000.01 1000.13 1000.14 1000.22 1000.39 1000.53 1001.10 1001.32 1001.47 1002.08 1002.52
1007.84 1007.98 1007.58 1008.09 1007.49 1007.18 1007.96 1008.25 1008.82 1009.12 1009.15 1007.99 1005.62 1003.69 1003.50 1003.79 1003.92 1004.58 1004.65 1004.50 1004.61 1004.51 1004.23 1003.87 1003.51 1003.23 1002.82 1002.34 1001.75 1001.30 1000.79 1000.56 1000.42 1000.29 1000.36 1000.37 1000.22 1000.20 1000.36 1000.63 1001.10 1001.56 1002.04 1002.57
1008.47 1008.30 1007.76 1007.29 1007.34 1008.22 1008.10 1007.93 1008.20 1008.71 1008.77 1008.61 1007.34 1004.52 1004.21 1004.41 1004.36 1004.57 1004.39 1004.27 1004.49 1004.52 1004.32 1003.84 1003.46 1003.13 1002.64 1002.41 1001.99 1001.57 1001.50 1000.81 1000.58 1000.78 1000.76 1000.63 1000.49 1000.21 1000.39 1000.62 1000.78 1001.50 1001.84 1002.21
1008.98 1008.78 1007.91 1007.13 1008.02 1008.38 1007.95 1007.92 1008.30 1008.73 1009.12 1008.17 1007.14 1004.68 1004.24 1003.98 1004.05 1004.06 1004.07 1004.14 1004.42 1004.39 1004.04 1003.76 1003.28 1002.94 1002.69 1002.50 1002.38 1001.90 1001.78 1001.67 1001.15 1001.17 1000.48 1000.73 1000.60 1000.51 1000.33 1001.12 1000.79 1001.14 1001.64 1001.72
1009.63 1009.00 1008.38 1007.39 1006.44 1007.44 1007.83 1007.74 1007.73 1007.73 1007.43 1006.56 1005.44 1004.15 1003.91 1003.80 1003.76 1003.87 1004.09 1004.22 1004.33 1004.07 1003.68 1003.45 1003.24 1002.98 1002.74 1002.67 1002.39 1002.20 1001.85 1001.66 1001.68 1001.40 1000.96 1000.71 1000.40 1000.46 1000.55 1000.69 1000.89 1000.92 1001.03 1001.35
1010.09 1009.10 1008.72 1007.88 1007.62 1007.38 1007.26 1007.09 1006.99 1006.67 1006.47 1006.05 1004.90 1004.32 1004.03 1003.97 1003.86 1004.51 1004.55 1004.40 1004.09 1003.88 1003.49 1003.24 1002.99 1002.82 1002.72 1002.54 1002.40 1002.11 1001.83 1001.62 1001.58 1001.66 1001.10 1001.05 1001.02 1000.69 1000.35 1000.55 1000.73 1000.61 1000.76 1001.09
1010.17 1009.42 1008.97 1008.18 1007.90 1007.44 1006.67 1006.28 1005.99 1005.85 1005.63 1005.29 1004.94 1004.22 1004.02 1003.64 1003.88 1004.12 1004.39 1004.54 1004.36 1003.94 1003.47 1003.07 1002.86 1002.71 1002.55 1002.48 1002.27 1001.97 1001.69 1001.45 1001.34 1001.23 1001.11 1001.01 1000.80 1000.68 1000.66 1000.52 1000.46 1000.66 1000.58 1000.80
1010.09 1009.69 1009.04 1008.17 1007.64 1007.54 1006.28 1005.03 1005.13 1005.05 1004.91 1004.93 1004.49 1003.93 1004.26 1004.22 1004.53 1004.94 1004.95 1004.80 1004.31 1003.78 1003.28 1002.88 1002.76 1002.59 1002.44 1002.22 1001.89 1001.55 1001.31 1001.08 1000.75 1000.44 1000.55 1000.83 1000.37 1000.51 1000.37 1000.19 1000.37 1000.27 1000.37 1000.49
1010.23 1009.82 1009.32 1008.67 1008.04 1006.63 1005.49 1005.98 1006.08 1005.90 1005.59 1005.40 1005.09 1004.87 1005.21 1005.42 1005.24 1005.21 1005.37 1004.91 1004.17 1003.82 1003.61 1003.54 1003.39 1002.98 1002.60 1002.38 1001.86 1001.10 1001.09 1000.68 1000.05 999.40 999.13 999.16 999.55 999.84 1000.25 1000.38 1000.29 1000.38 1000.19 1000.33
1010.28 1010.03 1009.60 1008.95 1007.44 1006.15 1005.47 1006.44 1006.40 1006.38 1005.94 1005.91 1005.88 1006.20 1006.25 1006.16 1005.67 1004.75 1005.07 1005.25 1005.30 1005.00 1004.48 1003.89 1003.68 1002.99 1002.36 1001.87 1001.52 1001.10 1000.03 999.58 999.36 998.91 998.10 998.05 998.24 998.51 999.28 1000.26 1000.18 1000.28 1000.26 1000.13
1010.06 1010.27 1010.00 1009.19 1008.54 1006.81 1006.48 1006.99 1007.43 1007.19 1005.94 1007.03 1007.51 1007.27 1007.11 1006.80 1006.02 1004.85 1005.55 1005.74 1005.28 1004.99 1004.40 1003.73 1002.97 1002.43 1001.51 1001.29 1000.81 1000.13 999.73 999.13 998.69 998.30 998.15 997.28 997.20 997.37 997.51 997.92 998.81 999.50 999.58 999.45
1009.64 1009.68 1009.52 1009.17 1008.62 1007.10 1007.45 1007.79 1007.89 1007.44 1007.69 1007.69 1008.05 1007.92 1007.88 1007.79 1007.41 1006.02 1005.65 1005.09 1005.04 1004.56 1003.74 1003.13 1002.19 1001.20 1000.52 1000.17 999.85 999.08 998.73 998.20 998.09 998.07 997.35 997.25 997.22 996.92 996.63 997.09 997.37 997.91 998.28 998.56
1008.51 1008.85 1008.84 1008.66 1008.39 1007.86 1008.09 1007.84 1008.17 1008.36 1008.45 1008.53 1008.40 1008.46 1008.24 1007.89 1007.04 1006.10 1005.17 1004.53 1004.18 1003.54 1002.73 1002.21 1001.03 1000.11 999.73 999.18 998.64 997.92 997.38 997.05 997.16 997.23 997.16 996.76 996.37 996.29 996.02 995.88 996.23 996.74 997.20 997.63
1008.05 1007.79 1007.92 1007.92 1007.53 1008.06 1008.23 1008.52 1008.79 1009.14 1008.91 1008.71 1008.93 1008.69 1008.48 1007.59 1006.68 1005.51 1004.77 1004.33 1003.66 1002.98 1002.15 1001.36 1000.37 999.31 998.55 997.78 997.09 996.31 995.77 995.71 995.46 995.61 995.52 995.87 995.79 995.86 995.52 995.36 995.26 995.82 996.35 996.35
1007.72 1007.96 1007.94 1007.78 1007.35 1007.73 1008.12 1008.52 1008.91 1009.13 1009.06 1008.95 1009.05 1008.71 1008.07 1006.94 1006.21 1005.45 1005.01 1004.12 1003.25 1002.43 1001.44 1000.51 999.35 998.32 997.21 996.40 995.70 994.90 994.06 993.57 993.47 993.59 993.85 994.19 994.29 994.63 995.09 995.00 994.51 994.90 994.92 995.22
1007.73 1008.10 1007.64 1007.46 1007.14 1007.77 1008.11 1008.51 1008.96 1009.08 1009.05 1008.88 1008.78 1008.23 1007.44 1006.74 1006.02 1005.66 1004.85 1003.95 1003.09 1002.02 1000.79 999.87 998.79 997.63 996.44 995.55 994.35 993.25 992.75 992.52 992.06 991.85 991.84 992.46 993.04 993.43 993.89 994.47 994.72 994.23 994.36 994.36
1007.50 1007.68 1007.97 1007.84 1008.31 1008.56 1008.27 1008.73 1009.01 1008.93 1008.83 1008.82 1008.31 1007.65 1007.31 1006.78 1006.16 1005.60 1004.77 1004.04 1003.07 1001.58 1000.22 999.21 998.27 997.16 996.00 994.74 993.56 992.56 992.16 991.52 990.92 989.88 989.79 990.88 991.89 992.61 993.10 993.71 994.25 994.85 994.45 994.56
Thickness
5659 5656 5657 5670 5670 5670 5664 5662 5663 5673 5680 5673 5677 5679 5689 5700 5701 5701 5707 5711 5713 5718 5725 5726 5727 5729 5730 5734 5735 5739 5741 5742 5739 5734 5735 5741 5745 5747 5747 5748 5746 5743 5740 5738
5648 5650 5669 5667 5662 5655 5657 5657 5661 5672 5674 5666 5672 5672 5685 5692 5698 5698 5698 5703 5709 5714 5717 5721 5723 5723 5720 5721 5724 5728 5732 5734 5732 5732 5732 5737 5737 5739 5738 5740 5739 5737 5737 5734
5649 5658 5658 5654 5651 5648 5654 5652 5655 5656 5664 5666 5667 5668 5683 5696 5697 5696 5694 5695 5698 5701 5703 5708 5709 5709 5713 5713 5714 5717 5721 5724 5728 5731 5729 5726 5726 5728 5727 5732 5734 5734 5730 5727
5648 5660 5650 5648 5647 5651 5647 5662 5651 5648 5649 5649 5664 5640 5669 5680 5683 5684 5685 5684 5684 5687 5693 5696 5698 5697 5697 5703 5706 5708 5710 5714 5718 5718 5717 5716 5719 5720 5727 5725 5727 5727 5723 5724
5648 5643 5642 5642 5647 5648 5645 5648 5642 5643 5641 5642 5652 5647 5662 5672 5669 5669 5671 5673 5670 5674 5675 5672 5671 5673 5678 5681 5685 5692 5697 5702 5710 5711 5711 5711 5708 5719 5721 5717 5719 5719 5721 5719
5640 5648 5639 5643 5641 5638 5639 5634 5638 5641 5638 5624 5646 5636 5646 5654 5639 5640 5642 5648 5650 5646 5644 5646 5648 5651 5655 5662 5670 5677 5680 5686 5693 5698 5701 5702 5707 5709 5712 5709 5710 5713 5714 5710
5640 5640 5644 5634 5626 5631 5626 5621 5618 5625 5635 5635 5645 5622 5636 5635 5621 5617 5616 5616 5616 5617 5621 5625 5626 5629 5636 5641 5649 5658 5668 5674 5680 5686 5690 5694 5697 5698 5702 5700 5701 5705 5705 5704
5611 5616 5621 5624 5620 5621 5621 5615 5603 5586 5610 5619 5622 5609 5628 5624 5612 5605 5602 5600 5603 5603 5606 5607 5610 5614 5620 5627 5636 5646 5654 5664 5670 5677 5682 5687 5689 5690 5691 5694 5697 5697 5699 5697
5603 5604 5611 5610 5612 5611 5606 5597 5606 5584 5590 5589 5615 5623 5625 5610 5605 5599 5593 5591 5589 5590 5593 5597 5599 5603 5610 5617 5625 5632 5638 5648 5658 5667 5673 5675 5681 5681 5686 5688 5686 5688 5691 5692
5600 5589 5603 5600 5598 5596 5594 5595 5577 5584 5556 5574 5610 5604 5609 5608 5591 5586 5581 5582 5581 5582 5585 5587 5590 5594 5599 5606 5615 5622 5627 5633 5644 5652 5657 5663 5666 5669 5672 5672 5673 5676 5678 5677
5594 5584 5586 5586 5586 5590 5584 5580 5575 5570 5562 5553 5569 5594 5603 5590 5587 5575 5573 5576 5575 5575 5576 5579 5582 5585 5589 5595 5601 5608 5616 5621 5628 5636 5641 5645 5651 5654 5658 5661 5662 5663 5666 5665
5582 5578 5573 5582 5590 5582 5581 5580 5577 5558 5556 5552 5553 5577 5594 5584 5581 5576 5573 5573 5570 5568 5569 5573 5575 5579 5582 5584 5589 5596 5599 5607 5613 5618 5623 5627 5633 5641 5644 5647 5653 5653 5655 5657
5571 5564 5564 5574 5571 5570 5571 5574 5568 5561 5552 5547 5541 5569 5587 5585 5578 5578 5571 5569 5564 5562 5564 5565 5569 5570 5573 5575 5576 5583 5586 5589 5597 5600 5612 5612 5616 5621 5628 5627 5638 5642 5643 5647
5560 5560 5560 5565 5579 5568 5559 5563 5565 5562 5553 5559 5567 5574 5578 5575 5573 5572 5568 5564 5561 5560 5560 5560 5560 5560 5562 5564 5567 5570 5574 5580 5581 5585 5591 5597 5604 5609 5613 5617 5621 5628 5634 5636
5548 5549 5555 5565 5566 5565 5564 5563 5563 5561 5563 5555 5569 5566 5570 5570 5570 5561 5559 5558 5557 5554 5554 5554 5553 5553 5553 5554 5555 5559 5563 5567 5570 5569 5576 5579 5582 5591 5600 5603 5607 5615 5621 5624
5542 5540 5547 5549 5556 5558 5561 5567 5567 5566 5566 5564 5564 5564 5574 5576 5571 5563 5555 5547 5543 5544 5545 5546 5544 5542 5541 5541 5542 5544 5548 5553 5556 5559 5560 5560 5566 5575 5581 5588 5595 5600 5607 5611
5534 5535 5539 5540 5554 5548 5554 5573 5570 5570 5571 5566 5560 5570 5568 5562 5554 5546 5539 5535 5535 5537 5536 5536 5533 5530 5528 5528 5529 5531 5535 5539 5544 5550 5552 5551 5558 5562 5569 5576 5581 5588 5593 5600
5526 5529 5535 5535 5543 5540 5566 5562 5557 5555 5558 5559 5560 5561 5552 5544 5542 5539 5527 5521 5526 5524 5519 5513 5509 5509 5510 5509 5513 5518 5517 5522 5529 5539 5547 5552 5550 5550 5552 5558 5565 5571 5582 5587
5522 5523 5523 5526 5543 5560 5563 5549 5549 5545 5549 5554 5548 5542 5539 5535 5533 5540 5522 5515 5504 5499 5497 5496 5493 5493 5494 5493 5493 5493 5505 5510 5513 5519 5533 5540 5544 5547 5541 5537 5546 5556 5563 5573
5519 5517 5518 5525 5517 5530 5545 5542 5540 5540 5548 5538 5531 5529 5525 5524 5514 5528 5513 5502 5498 5492 5489 5488 5489 5485 5488 5481 5477 5475 5476 5483 5492 5502 5510 5525 5532 5536 5540 5546 5546 5548 5556 5568
5510 5514 5514 5518 5515 5541 5535 5531 5532 5527 5533 5531 5524 5521 5515 5505 5502 5507 5505 5502 5492 5487 5487 5486 5488 5488 5483 5475 5469 5466 5460 5461 5464 5469 5484 5494 5506 5520 5532 5537 5544 5550 5555 5561
5520 5513 5513 5519 5512 5517 5525 5527 5518 5524 5521 5519 5518 5511 5506 5501 5501 5503 5505 5502 5494 5492 5492 5490 5490 5485 5473 5467 5462 5461 5458 5454 5451 5450 5453 5467 5483 5499 5513 5526 5536 5542 5547 5553
5520 5527 5521 5524 5524 5520 5519 5514 5514 5511 5514 5514 5507 5503 5497 5499 5502 5508 5504 5497 5494 5493 5492 5490 5485 5480 5472 5468 5463 5460 5457 5451 5447 5443 5447 5449 5460 5472 5490 5508 5521 5529 5537 5548
5523 5522 5516 5518 5524 5518 5514 5512 5510 5508 5508 5507 5498 5495 5498 5505 5504 5503 5494 5493 5494 5494 5495 5492 5488 5484 5478 5471 5464 5457 5454 5451 5447 5441 5440 5444 5455 5464 5470 5485 5507 5517 5530 5540
5518 5513 5516 5517 5522 5513 5509 5508 5505 5503 5504 5502 5496 5498 5502 5504 5503 5495 5490 5492 5493 5496 5496 5495 5492 5484 5476 5470 5467 5463 5456 5449 5446 5446 5445 5444 5451 5464 5471 5476 5483 5505 5517 5531
5516 5513 5506 5505 5503 5499 5505 5503 5501 5500 5500 5496 5498 5502 5499 5499 5497 5490 5490 5491 5492 5498 5501 5500 5493 5485 5479 5478 5475 5471 5462 5457 5454 5461 5460 5455 5455 5462 5469 5475 5480 5481 5495 5507